Hereford, TX

8:44 AM CDT on April 24, 2018 (GMT -0500)
Hereford Municipal

Weather History for KHRX - April, 2013

Change the Weather History Date:

Friday, April 12, 2013

  Actual Average (KCVN) Record (KCVN)
Temperature  
Mean Temperature 57 °F -  
Max Temperature 74 °F 72 °F 96 °F (1936)
Min Temperature 40 °F 40 °F 21 °F (1997)
Degree Days  
Heating Degree Days 8    
Growing Degree Days 7 (Base 50)    
Moisture  
Dew Point 26 °F    
Average Humidity 36    
Maximum Humidity 61    
Minimum Humidity 14    
Precipitation  
Precipitation 0.00 in - - ()
Sea Level Pressure  
Sea Level Pressure 29.91 in    
Wind  
Wind Speed 10 mph (ESE)    
Max Wind Speed 21 mph    
Max Gust Speed 31 mph    
Visibility 10 miles    
Events      
Averages and records for this station are not official NWS values.
T = Trace of Precipitation, MM = Missing Value Source: NWS Daily Summary

Daily Weather History Graph

Daily Weather History Graph

Search for Another Location

Airport or City:

Astronomy

Apr. 12, 2013 Rise Set
Actual Time 7:20 AM CDT 8:19 PM CDT
Civil Twilight 6:55 AM CDT 8:45 PM CDT
Nautical Twilight 6:24 AM CDT 9:16 PM CDT
Astronomical Twilight 5:52 AM CDT 9:47 PM CDT
Moon 8:37 AM CDT (4/12) 10:46 PM CDT (4/12)
Length of Visible Light 13h 50m
Length of Day
12h 58m
Waxing Crescent, 5% of the Moon is Illuminated
Apr 12
Waxing Crescent
Apr 18
First Quarter
Apr 25
Full
May 2
Last Quarter
May 9
New

Hourly Weather History & Observations

Time (CDT) Temp. Windchill Dew Point Humidity Pressure Visibility Wind Dir Wind Speed Gust Speed Precip Events Conditions
12:15 AM 41.4 °F 36.2 °F 21.7 °F 46% 29.89 in 10.0 mi East 8.1 mph - N/A   Clear
12:35 AM 41.0 °F 35.2 °F 21.4 °F 46% 29.90 in 10.0 mi East 9.2 mph - N/A   Clear
12:55 AM 41.2 °F 36.0 °F 22.3 °F 47% 29.90 in 10.0 mi ENE 8.1 mph - N/A   Clear
1:15 AM 44.2 °F 40.3 °F 23.4 °F 44% 29.90 in 10.0 mi East 6.9 mph - N/A   Clear
1:35 AM 44.8 °F 40.4 °F 23.2 °F 43% 29.91 in 10.0 mi East 8.1 mph - N/A   Clear
1:55 AM 42.1 °F 37.1 °F 23.0 °F 47% 29.91 in 10.0 mi ENE 8.1 mph - N/A   Clear
2:15 AM 41.9 °F 36.9 °F 23.4 °F 48% 29.92 in 10.0 mi ENE 8.1 mph - N/A   Clear
2:35 AM 41.9 °F 36.9 °F 23.9 °F 49% 29.91 in 10.0 mi ENE 8.1 mph - N/A   Clear
2:55 AM 41.2 °F 36.0 °F 24.1 °F 51% 29.91 in 10.0 mi ENE 8.1 mph - N/A   Clear
3:15 AM 40.6 °F 34.3 °F 24.4 °F 53% 29.91 in 10.0 mi ENE 10.4 mph - N/A   Clear
3:35 AM 40.3 °F 34.9 °F 24.4 °F 53% 29.90 in 10.0 mi ENE 8.1 mph - N/A   Scattered Clouds
3:55 AM 43.7 °F 37.3 °F 25.7 °F 49% 29.90 in 10.0 mi ENE 12.7 mph - N/A   Overcast
4:15 AM 45.5 °F 39.6 °F 25.7 °F 46% 29.91 in 10.0 mi East 12.7 mph - N/A   Overcast
4:35 AM 45.9 °F 40.4 °F 26.1 °F 46% 29.91 in 10.0 mi East 11.5 mph - N/A   Overcast
4:55 AM 45.1 °F 39.1 °F 26.1 °F 47% 29.91 in 10.0 mi East 12.7 mph - N/A   Mostly Cloudy
5:15 AM 45.5 °F 39.9 °F 26.1 °F 47% 29.91 in 10.0 mi East 11.5 mph - N/A   Mostly Cloudy
5:35 AM 45.3 °F 40.6 °F 26.2 °F 47% 29.93 in 10.0 mi ENE 9.2 mph - N/A   Mostly Cloudy
5:55 AM 44.6 °F 39.7 °F 26.2 °F 49% 29.93 in 10.0 mi ENE 9.2 mph - N/A   Scattered Clouds
6:15 AM 44.8 °F 41.0 °F 26.2 °F 48% 29.94 in 10.0 mi NE 6.9 mph - N/A   Clear
6:35 AM 42.8 °F - 25.7 °F 51% 29.95 in 10.0 mi Calm Calm - N/A   Scattered Clouds
6:55 AM 42.6 °F 39.9 °F 25.9 °F 52% 29.95 in 10.0 mi ENE 4.6 mph - N/A   Mostly Cloudy
7:15 AM 41.4 °F 36.8 °F 25.7 °F 54% 29.95 in 10.0 mi ENE 6.9 mph - N/A   Scattered Clouds
7:35 AM 40.6 °F 36.7 °F 25.5 °F 55% 29.96 in 10.0 mi ENE 5.8 mph - N/A   Clear
7:55 AM 40.1 °F 35.3 °F 25.5 °F 56% 29.97 in 10.0 mi NE 6.9 mph - N/A   Clear
8:15 AM 41.2 °F 39.2 °F 26.1 °F 55% 29.98 in 10.0 mi ENE 3.5 mph - N/A   Clear
8:35 AM 42.8 °F - 26.6 °F 53% 29.99 in 10.0 mi Calm Calm - N/A   Clear
8:55 AM 45.7 °F 44.4 °F 26.6 °F 47% 30.00 in 10.0 mi East 3.5 mph - N/A   Mostly Cloudy
9:15 AM 47.5 °F - 27.3 °F 46% 30.00 in 10.0 mi NE 3.5 mph - N/A   Mostly Cloudy
9:55 AM 52.5 °F - 27.0 °F 37% 30.00 in 10.0 mi East 9.2 mph 16.1 mph N/A   Mostly Cloudy
10:15 AM 54.3 °F - 26.6 °F 34% 30.00 in 10.0 mi East 10.4 mph - N/A   Scattered Clouds
10:35 AM 55.8 °F - 27.0 °F 33% 30.00 in 10.0 mi East 12.7 mph 16.1 mph N/A   Clear
10:55 AM 57.4 °F - 25.7 °F 30% 29.99 in 10.0 mi ESE 11.5 mph 18.4 mph N/A   Clear
11:15 AM 59.2 °F - 24.8 °F 27% 29.99 in 10.0 mi SE 12.7 mph 18.4 mph N/A   Clear
11:35 AM 59.5 °F - 24.6 °F 26% 29.98 in 10.0 mi SE 16.1 mph 24.2 mph N/A   Clear
11:55 AM 59.7 °F - 25.0 °F 26% 29.98 in 10.0 mi SSE 13.8 mph 21.9 mph N/A   Clear
12:15 PM 60.8 °F - 25.7 °F 26% 29.97 in 10.0 mi SSE 17.3 mph 21.9 mph N/A   Clear
12:35 PM 62.6 °F - 25.7 °F 25% 29.96 in 10.0 mi SE 11.5 mph 23.0 mph N/A   Clear
12:55 PM 64.2 °F - 24.3 °F 22% 29.96 in 10.0 mi SSE 11.5 mph 25.3 mph N/A   Clear
1:15 PM 65.3 °F - 24.8 °F 22% 29.95 in 10.0 mi SSE 17.3 mph 26.5 mph N/A   Clear
1:35 PM 66.4 °F - 24.4 °F 20% 29.94 in 10.0 mi SSE 18.4 mph 24.2 mph N/A   Clear
1:55 PM 67.3 °F - 24.4 °F 20% 29.93 in 10.0 mi SSE 12.7 mph 31.1 mph N/A   Clear
2:15 PM 68.7 °F - 24.3 °F 19% 29.91 in 10.0 mi SSE 19.6 mph 25.3 mph N/A   Clear
2:35 PM 69.1 °F - 25.0 °F 19% 29.91 in 10.0 mi SSE 17.3 mph 25.3 mph N/A   Clear
2:55 PM 71.1 °F - 24.4 °F 17% 29.89 in 10.0 mi South 16.1 mph 24.2 mph N/A   Clear
3:15 PM 71.8 °F - 25.3 °F 18% 29.89 in 10.0 mi South 16.1 mph 26.5 mph N/A   Scattered Clouds
3:35 PM 72.9 °F - 25.5 °F 17% 29.87 in 10.0 mi South 13.8 mph 26.5 mph N/A   Mostly Cloudy
3:55 PM 72.7 °F - 25.0 °F 17% 29.86 in 10.0 mi SSW 13.8 mph 25.3 mph N/A   Mostly Cloudy
4:15 PM 71.4 °F - 25.7 °F 18% 29.85 in 10.0 mi SSW 9.2 mph 21.9 mph N/A   Mostly Cloudy
4:35 PM 72.7 °F - 24.4 °F 16% 29.84 in 10.0 mi SW 13.8 mph 25.3 mph N/A   Scattered Clouds
4:55 PM 73.0 °F - 24.1 °F 16% 29.84 in 10.0 mi SSW 13.8 mph 20.7 mph N/A   Clear
5:15 PM 72.7 °F - 23.4 °F 16% 29.84 in 10.0 mi North - - N/A   Scattered Clouds
5:35 PM 72.7 °F - 22.8 °F 15% 29.83 in 10.0 mi SW 10.4 mph - N/A   Scattered Clouds
5:55 PM 74.3 °F - 23.5 °F 15% 29.82 in 10.0 mi WSW 9.2 mph - N/A   Scattered Clouds
6:15 PM 73.6 °F - 22.3 °F 15% 29.82 in 10.0 mi West 6.9 mph - N/A   Scattered Clouds
6:35 PM 72.7 °F - 21.2 °F 14% 29.83 in 10.0 mi WSW 12.7 mph - N/A   Scattered Clouds
6:55 PM 72.3 °F - 21.6 °F 15% 29.83 in 10.0 mi WSW 13.8 mph - N/A   Scattered Clouds
7:15 PM 71.8 °F - 21.4 °F 15% 29.83 in 10.0 mi WSW 8.1 mph - N/A   Scattered Clouds
7:35 PM 71.4 °F - 21.6 °F 15% 29.83 in 10.0 mi Calm Calm - N/A   Scattered Clouds
7:55 PM 65.3 °F - 29.5 °F 26% 29.84 in 10.0 mi ESE 15.0 mph 18.4 mph N/A   Mostly Cloudy
8:15 PM 61.5 °F - 30.6 °F 31% 29.84 in 10.0 mi ESE 16.1 mph 23.0 mph N/A   Scattered Clouds
8:35 PM 59.5 °F - 31.1 °F 34% 29.84 in 10.0 mi ESE 16.1 mph 24.2 mph N/A   Clear
8:55 PM 59.0 °F - 32.0 °F 36% 29.85 in 10.0 mi ESE 20.7 mph 27.6 mph N/A   Clear
9:15 PM 58.1 °F - 32.9 °F 39% 29.86 in 10.0 mi SE 20.7 mph 27.6 mph N/A   Clear
9:35 PM 56.1 °F - 33.1 °F 42% 29.87 in 10.0 mi SE 15.0 mph 24.2 mph N/A   Clear
9:55 PM 55.9 °F - 34.7 °F 45% 29.88 in 10.0 mi SE 18.4 mph 25.3 mph N/A   Clear
10:15 PM 55.4 °F - 35.6 °F 47% 29.89 in 10.0 mi SE 13.8 mph 24.2 mph N/A   Clear
10:35 PM 53.6 °F - 35.8 °F 51% 29.90 in 10.0 mi SE 15.0 mph 19.6 mph N/A   Clear
10:55 PM 53.1 °F - 36.3 °F 53% 29.91 in 10.0 mi SE 13.8 mph - N/A   Clear
11:15 PM 51.1 °F - 35.8 °F 56% 29.91 in 10.0 mi ESE 13.8 mph - N/A   Clear
11:35 PM 50.2 °F - 36.3 °F 59% 29.91 in 10.0 mi SE 15.0 mph 20.7 mph N/A   Clear
11:55 PM 50.0 °F - 36.9 °F 61% 29.91 in 10.0 mi ESE 15.0 mph 21.9 mph N/A   Clear